Location: Kumla
(59.1265°N, 15.1401°E)
Time: 16:34:46
(UTC+01:00)

A-11 Canister half - Pass Details

Date: 07 December 2023
Orbit: 1512 x 1687 km, 47.2° (Epoch: 25 February)

Event Time Altitude Azimuth Distance (km) Brightness Sun altitude
Rises 02:11:17 0° 248° (WSW) 4,771 - -45.8°
Reaches altitude 10° 02:14:32 10° 242° (WSW) 3,811 - -45.5°
Maximum altitude 02:23:24 42° 176° (S) 2,208 - -44.6°
Exits shadow 02:27:52 28° 129° (SE) 2,738 10.3 -44.1°
Drops below altitude 10° 02:32:32 10° 111° (ESE) 3,928 11.4 -43.6°
Sets 02:35:56 0° 105° (ESE) 4,929 12.1 -43.2°
